Flag for Botswana Weather past 2 weeks in Molepolole, Botswana

Now
77 °F

Broken clouds.


Feels Like: 79 °F
Forecast: 67 / 83 °F
Wind: 8 mph from Northeast

Location: Seretse Khama International Airport

Current Time: Jan 30, 2015 at 1:06:32 PM

Latest Report: Jan 30, 2015 at 12:00 PM


Visibility: N/A

Pressure: 30.09 "Hg

Humidity: 61%

Dew point: 63 °F

Location of MolepololeLocation

Historic Weather in Molepolole — Graph

°F

Molepolole temperature yesterday

Maximum temperature yesterday: 82 °F (at 2:00 PM)
Minimum temperature yesterday: 66 °F (at 3:00 AM)
Average temperature yesterday: 74 °F

Past Weeks' High & Low Weather Summary

 TemperatureHumidityPressure
High99 °F (Jan 27, 4:00 PM)94% (Jan 16, 5:00 AM)31.42 "Hg (Jan 16, 5:00 AM)
Low61 °F (Jan 19, 6:00 AM)16% (Jan 21, 5:00 PM)29.80 "Hg (Jan 16, 4:00 PM)
Average79 °F50%30.03 "Hg
* Reported Jan 15 12:00 Noon — Jan 30 12:00 Noon, Molepolole, Weather by CustomWeather, © 2014

Note: Actual official high and low records may vary slightly from our data, if they occured in-between our weather recording intervals... More about our weather records

Advertising

Molepolole weather history for previous 24 hours

 ConditionsComfort  
Time TempWeatherWind HumidityBarometerVisibility
12:00 PM
Jan 30
77 °FBroken clouds.8 mph61%30.09 "HgN/A
11:00 AM73 °FBroken clouds.8 mph74%30.12 "HgN/A
10:00 AM72 °FBroken clouds.10 mph78%30.12 "HgN/A
9:00 AM72 °FOvercast.10 mph78%30.12 "HgN/A
8:00 AM70 °FOvercast.9 mph88%30.09 "HgN/A
7:00 AM70 °FPartly sunny.9 mph88%30.09 "HgN/A
6:00 AM68 °FPartly sunny.6 mph94%30.07 "HgN/A
5:00 AM68 °FPartly sunny.5 mph94%30.07 "HgN/A
4:00 AM68 °FPassing clouds.8 mph94%30.07 "HgN/A
3:00 AM70 °FPassing clouds.8 mph88%30.07 "HgN/A
1:00 AM70 °FClear.7 mph83%30.07 "Hg10 mi
12:00 AM70 °FClear.8 mph78%30.09 "Hg10 mi
11:00 PM
Jan 29
72 °FClear.7 mph73%30.09 "Hg10 mi
10:00 PM73 °FClear.10 mph69%30.07 "Hg10 mi
9:00 PM73 °FPassing clouds.7 mph74%30.04 "HgN/A
8:00 PM73 °FPassing clouds.8 mph69%30.01 "HgN/A
7:00 PM77 °FPassing clouds.13 mph61%30.04 "HgN/A
6:00 PM79 °FScattered clouds.7 mph65%30.01 "HgN/A
5:00 PM79 °FScattered clouds.1 mph65%29.98 "HgN/A
4:00 PM79 °FLight rain. Partly sunny.5 mph61%29.98 "HgN/A
3:00 PM77 °FScattered clouds.13 mph69%30.01 "HgN/A
2:00 PM82 °FScattered clouds.5 mph51%30.01 "HgN/A
1:00 PM77 °FBroken clouds.2 mph65%30.04 "HgN/A
Weather by CustomWeather, © 2014

See weather overviewHow to use our weather pages